Fayetteville, Georgia, United States (30214)
Lat: 33.45N, Lon: 84.45W
Wx Zone: GAZ054
Local Info
Past Weather Observations for Today

NOTE: This archive is for the closest National Weather Service station to Fayetteville. Information may differ from the station used for current weather conditions.

Click here for Long-term Archive

Time Weather Temperature Dewpoint Humidity Pressure Winds Precip Visibility
21:53
Partly Cloudy
32°F / 0°C 28°F / -2°C 87% 29.95 in
(1014 mb)
W 3.5 mph
(W 6 kph)
- 10SM
20:53
Clear
34°F / 1°C 28°F / -2°C 81% 29.98 in
(1015 mb)
NW 4.6 mph
(NW 7 kph)
- 10SM
19:53
Clear
36°F / 2°C 28°F / -2°C 75% 29.95 in
(1014 mb)
NW 5.8 mph
(NW 9 kph)
- 10SM
18:53
Partly Cloudy
37°F / 3°C 28°F / -2°C 70% 29.95 in
(1014 mb)
NW 9.2 mph
(NW 15 kph)
- 10SM
18:20
Partly Cloudy
37°F / 3°C 28°F / -2°C 70% 29.95 in
(1014 mb)
NW 10.4 mph
(NW 17 kph)
- 10SM
17:53
Mostly Cloudy
39°F / 4°C 28°F / -2°C 65% 29.95 in
(1014 mb)
WNW 8.1 mph
(WNW 13 kph)
- 10SM
16:53
Overcast
39°F / 4°C 28°F / -2°C 65% 29.92 in
(1013 mb)
NW 16.1 mph
(NW 26 kph)
- 10SM
15:53
Overcast
39°F / 4°C 30°F / -1°C 70% 29.92 in
(1013 mb)
NW 17.3 mph
(NW 28 kph)
- 10SM
14:53
Overcast
41°F / 5°C 32°F / 0°C 70% 29.89 in
(1012 mb)
NW 18.4 mph
(NW 30 kph)
- 10SM
13:53
Overcast
43°F / 6°C 34°F / 1°C 71% 29.89 in
(1012 mb)
NW 17.3 mph
(NW 28 kph)
- 10SM
12:53
Overcast
45°F / 7°C 34°F / 1°C 66% 29.89 in
(1012 mb)
NW 17.3 mph
(NW 28 kph)
- 10SM
11:53
Overcast
45°F / 7°C 34°F / 1°C 66% 29.89 in
(1012 mb)
NW 15 mph
(NW 24 kph)
- 10SM
10:53
Overcast
45°F / 7°C 37°F / 3°C 76% 29.89 in
(1012 mb)
NW 15 mph
(NW 24 kph)
0.00 in
(0.00 mm)
10SM
09:53
Overcast
45°F / 7°C 37°F / 3°C 76% 29.86 in
(1011 mb)
NW 16.1 mph
(NW 26 kph)
- 9SM
08:53
Overcast
45°F / 7°C 37°F / 3°C 76% 29.83 in
(1010 mb)
W 9.2 mph
(W 15 kph)
- 10SM
07:53
Overcast
45°F / 7°C 39°F / 4°C 81% 29.8 in
(1009 mb)
W 9.2 mph
(W 15 kph)
- 10SM
07:04
Overcast
45°F / 7°C 39°F / 4°C 81% 29.8 in
(1009 mb)
WNW 8.1 mph
(WNW 13 kph)
- 10SM
06:53
Overcast
45°F / 7°C 39°F / 4°C 81% 29.8 in
(1009 mb)
W 11.5 mph
(W 19 kph)
- 10SM
06:37
Overcast
45°F / 7°C 39°F / 4°C 81% 29.8 in
(1009 mb)
W 8.1 mph
(W 13 kph)
- 10SM
05:53
Overcast
45°F / 7°C 39°F / 4°C 81% 29.77 in
(1008 mb)
W 6.9 mph
(W 11 kph)
- 10SM
05:20
Overcast
45°F / 7°C 39°F / 4°C 81% 29.77 in
(1008 mb)
W 6.9 mph
(W 11 kph)
- 10SM
04:53
Overcast
45°F / 7°C 39°F / 4°C 81% 29.77 in
(1008 mb)
W 5.8 mph
(W 9 kph)
- 10SM
03:53
Overcast
45°F / 7°C 39°F / 4°C 81% 29.77 in
(1008 mb)
W 6.9 mph
(W 11 kph)
- 10SM
03:44
Overcast
45°F / 7°C 39°F / 4°C 81% 29.77 in
(1008 mb)
W 6.9 mph
(W 11 kph)
- 10SM
03:20
Mostly Cloudy
45°F / 7°C 39°F / 4°C 81% 29.77 in
(1008 mb)
W 8.1 mph
(W 13 kph)
- 10SM
02:53
Partly Cloudy
45°F / 7°C 39°F / 4°C 81% 29.77 in
(1008 mb)
SSW 8.1 mph
(SSW 13 kph)
- 10SM
01:53
Overcast
45°F / 7°C 41°F / 5°C 87% 29.77 in
(1008 mb)
W 5.8 mph
(W 9 kph)
- 10SM
00:53
Mostly Cloudy
39°F / 4°C 37°F / 3°C 93% 29.77 in
(1008 mb)
Calm - 10SM
Time Weather Temperature Dewpoint Humidity Pressure Winds Precip Visibility


Weather for websites

WeatherForYou.com, LLC is not responsible for any damages or problems caused by this service. Current weather conditions are obtained from the closest station including government and personal stations which may have varying degrees of accuracy. Weather forecasts are derived from the NOAA NDFD. Like all things, this site belongs to Jesus Christ... He just trusts me to maintain it. If you have any questions or comments email webmaster@weatherforyou.com

Copyright © 2015, WeatherForYou.com LLC. All rights reserved.